Location: Peebles
(55.6412°N, 3.1714°W)
Time: 08:50:48
(UTC+00:00)

RS-15 - Visible Passes

Search period start: 30 November 2022 00:00
Search period end: 10 December 2022 00:00
Orbit: 1882 x 2163 km, 64.8° (Epoch: 29 November)

Date Brightness Start Highest point End Pass type
(mag) Time Alt. Az. Time Alt. Az. Time Alt. Az.
30 Nov 9.8 00:12:54 10° WNW 00:15:32 14° WNW 00:15:32 14° WNW visible
30 Nov 8.4 16:54:39 10° W 17:06:50 56° N 17:17:38 14° ENE visible
30 Nov 8.1 19:09:02 10° NW 19:21:27 70° NNE 19:25:23 49° E visible
30 Nov 8.3 21:22:07 10° NW 21:33:09 61° WSW 21:33:09 61° WSW visible
30 Nov 9.6 23:35:53 10° NW 23:40:55 19° WNW 23:40:55 19° WNW visible
01 Dec 8.5 16:18:06 10° W 16:30:18 58° N 16:42:19 10° ENE visible
01 Dec 8.2 18:32:43 10° WNW 18:45:03 64° NNE 18:50:47 36° E visible
01 Dec 8.0 20:45:59 10° NW 20:58:11 73° SW 20:58:33 73° SW visible
01 Dec 9.3 22:59:16 10° NW 23:06:19 26° W 23:06:19 26° W visible
02 Dec 8.3 17:56:19 10° WNW 18:08:36 60° NNE 18:16:13 26° E visible
02 Dec 7.9 20:09:49 10° NW 20:22:11 84° SW 20:23:59 70° SSE visible
02 Dec 9.0 22:22:53 10° NW 22:31:45 34° W 22:31:45 34° W visible
03 Dec 8.3 17:19:53 10° WNW 17:32:06 58° N 17:41:42 18° E visible
03 Dec 8.0 19:33:38 10° NW 19:46:05 86° NE 19:49:29 56° SE visible
03 Dec 8.7 21:46:36 10° NW 21:57:15 42° WSW 21:57:15 42° WSW visible
04 Dec 10.0 00:04:04 10° WNW 00:05:02 10° WNW 00:05:02 10° WNW visible
04 Dec 8.4 16:43:23 10° WNW 16:55:34 56° N 17:07:15 11° E visible
04 Dec 8.0 18:57:26 10° NW 19:09:53 78° NE 19:15:02 42° ESE visible
04 Dec 8.4 21:10:24 10° NW 21:21:56 51° WSW 21:22:48 51° SW visible
04 Dec 9.7 23:25:13 10° WNW 23:30:35 15° W 23:30:35 15° W visible
05 Dec 8.4 16:06:50 10° W 16:19:01 56° N 16:30:56 10° ENE visible
05 Dec 8.1 18:21:11 10° NW 18:33:35 71° NNE 18:40:38 30° ESE visible
05 Dec 8.3 20:34:15 10° NW 20:46:09 61° WSW 20:48:25 54° SSW visible
05 Dec 9.5 22:48:06 10° NW 22:55:54 21° W 22:56:13 21° W visible
06 Dec 8.2 17:44:52 10° WNW 17:57:13 65° NNE 18:06:20 20° E visible
06 Dec 8.2 19:58:06 10° NW 20:10:17 72° SW 20:14:07 49° SSE visible
06 Dec 9.3 22:11:27 10° NW 22:20:36 27° W 22:21:55 26° WSW visible
07 Dec 8.3 17:08:29 10° WNW 17:20:46 61° NNE 17:32:07 12° E visible
07 Dec 8.1 19:21:57 10° NW 19:34:17 82° SW 19:39:56 39° SE visible
07 Dec 9.1 21:35:02 10° NW 21:45:10 33° WSW 21:47:43 31° SW visible
08 Dec 8.3 16:32:03 10° WNW 16:44:16 58° N 16:56:08 10° E visible
08 Dec 8.0 18:45:47 10° NW 18:58:12 88° NE 19:05:51 28° SE visible
08 Dec 8.9 20:58:44 10° NW 21:09:38 41° WSW 21:13:40 33° SSW visible
09 Dec 8.1 18:09:34 10° NW 18:22:00 79° NE 18:31:56 17° ESE visible
09 Dec 8.6 20:22:32 10° NW 20:33:59 50° WSW 20:39:46 30° S visible
09 Dec 9.9 22:37:34 10° WNW 22:43:04 15° W 22:47:37 11° WSW visible
